SCP
1 1 1 1 2 2 2 1 1 1 1 1 1 1 1 1 1 1 1 1 1 1 2 2 1 1 1 1 2 2 2 2 2 2 2 1 1 1 1 1 1 1 1
1 1 1 1 1 1 2 2 1 1 1 1 1 1 1 1 1 1 1 1 1 1 1 2 1 1 1 2 2 2 2 2 2 2 2 2 1 1 1 1 1 1 1
1 1 1 1 1 1 1 2 2 1 1 1 1 1 1 1 1 0 1 1 1 1 1 1 1 1 2 2 2 2 2 2 2 2 2 2 2 1 1 1 1 1 1
1 1 1 1 1 1 1 2 2 2 1 1 1 1 1 1 1 1 0 0 1 1 1 1 1 2 2 2 2 2 3 3 3 2 2 2 2 2 1 1 1 1 1
0 1 1 1 1 1 1 1 2 2 2 1 1 1 1 1 1 1 1 0 0 1 1 1 1 1 1 1 2 2 3 3 3 3 2 2 2 1 1 1 1 1 1
0 0 0 0 1 1 1 1 1 1 2 1 1 1 1 1 1 1 0 0 1 1 1 1 1 1 1 1 1 1 2 3 3 3 3 3 2 2 1 1 1 1 1
0 0 0 0 0 1 1 1 1 1 1 1 1 1 1 0 0 0 0 1 1 1 1 1 1 1 1 1 1 1 1 2 3 3 3 3 3 2 2 1 1 1 1
0 0 0 0 0 1 1 1 1 1 1 1 1 1 1 0 0 0 0 1 1 1 1 1 1 1 1 1 1 1 1 1 2 2 3 3 3 3 2 2 1 1 1
0 0 0 0 0 1 1 1 1 1 1 1 1 1 0 0 0 0 1 1 1 1 0 1 1 1 1 1 0 0 0 1 1 2 2 2 2 2 2 2 2 2 1
0 0 0 0 0 0 0 0 0 1 1 1 1 1 0 0 0 0 0 1 0 0 0 0 0 1 1 1 0 0 0 0 1 1 2 2 2 2 2 2 2 2 2
0 0 0 0 0 0 0 0 0 0 1 1 1 1 1 0 0 0 0 0 0 0 0 0 0 1 1 1 0 0 0 0 1 1 2 2 2 2 2 2 2 2 2
0 0 0 0 0 0 0 0 0 0 0 0 1 1 1 1 1 1 0 0 0 0 0 0 0 0 0 0 0 0 0 0 0 1 1 2 2 2 1 1 1 1 1
0 0 0 0 0 0 0 0 0 0 0 0 0 1 1 1 1 1 1 1 0 0 0 0 0 0 0 0 0 0 0 0 0 1 1 1 1 1 1 1 1 1 1
0 0 0 0 0 0 0 0 0 0 0 0 0 0 0 0 0 1 1 1 0 0 0 0 0 0 0 0 0 0 0 0 0 0 0 1 1 1 1 1 1 1 1
0 0 0 0 0 0 0 0 0 0 0 0 0 0 0 0 0 0 0 0 0 0 0 0 0 0 0 0 0 0 0 0 0 0 0 0 0 0 0 0 0 0 1
0 0 0 0 0 0 0 0 0 0 0 0 0 0 0 0 0 0 0 0 0 0 0 0 0 0 0 0 0 0 0 0 0 0 0 0 0 0 0 0 0 0 0
0 0 0 0 0 0 0 0 0 0 0 0 0 0 0 0 0 0 0 0 0 0 0 0 0 0 0 0 0 0 0 0 0 0 0 0 0 0 0 0 0 0 0
0 0 0 0 0 0 0 0 0 0 0 0 0 0 0 0 0 0 0 0 0 0 0 0 0 0 0 0 0 0 0 0 0 0 0 0 0 0 0 0 0 0 0
0 0 0 0 0 0 0 0 0 0 0 0 0 0 0 0 0 0 0 0 0 0 0 0 0 0 0 0 0 0 0 0 0 0 0 0 0 0 0 0 0 0 0
0 0 0 0 0 0 0 0 0 0 0 0 0 0 0 0 0 0 0 0 0 0 0 0 0 0 0 0 0 0 0 0 0 0 0 0 0 0 0 0 0 0 0
0 0 0 0 0 0 0 0 0 0 0 0 0 0 0 0 0 0 0 0 0 0 0 0 0 0 0 0 0 0 0 0 0 0 0 0 0 0 0 0 0 0 0
0 0 0 0 0 0 0 0 0 0 0 0 0 0 0 0 0 0 0 0 0 0 0 0 0 0 0 0 0 0 0 0 0 0 0 0 0 0 0 0 0 0 0
0 0 0 0 0 0 0 0 0 0 0 0 0 0 0 0 0 0 0 0 0 0 0 0 0 0 0 0 0 0 0 0 0 0 0 0 0 0 0 0 0 0 0
0 0 0 0 0 0 0 0 0 0 0 0 0 0 0 0 0 0 0 0 0 0 0 0 0 0 0 0 0 0 0 0 0 0 0 0 0 0 0 0 0 0 0
0 0 0 0 0 0 0 0 0 0 0 0 0 0 0 0 0 0 0 0 0 0 0 0 0 0 0 0 0 0 0 0 0 0 0 0 0 0 0 0 0 0 0
0 0 0 0 0 0 0 0 0 0 0 0 0 0 0 0 0 0 0 0 0 0 0 0 0 0 0 0 0 0 0 0 0 0 0 0 0 0 0 0 0 0 0
Wind_Speed
1 1 1 1 2 2 2 2 3 4 5 5 5 5 5 6 5 3 3 8 10 10 11 11 11 11 10 10 10 9 9 8 8 8 7 7 7 8 8 8 8 8 7
2 1 2 2 2 2 2 2 4 4 4 3 4 5 5 4 4 4 3 5 9 10 11 12 12 12 12 11 11 10 9 9 9 8 8 8 8 8 9 9 9 8 8
2 2 2 2 2 2 2 2 3 3 3 3 4 4 3 3 3 3 3 3 4 9 10 12 12 12 12 12 12 11 10 9 9 9 9 9 9 9 10 10 9 9 9
3 2 2 2 2 2 2 2 2 2 3 3 3 3 3 3 4 4 3 3 3 4 7 11 11 12 12 12 12 12 11 10 10 10 10 10 10 10 10 10 10 10 10
3 3 2 2 3 2 2 2 2 2 3 3 3 3 3 3 4 4 4 4 3 3 4 7 11 11 11 11 12 12 12 11 10 11 11 11 11 11 11 11 11 11 12
3 3 3 3 3 2 2 2 3 2 2 2 4 4 3 4 4 4 5 4 3 4 4 4 5 7 10 10 11 12 12 12 11 11 12 12 12 12 12 12 12 12 12
3 3 3 3 3 2 3 3 2 3 2 2 2 3 4 4 4 3 3 3 3 4 4 4 3 3 4 8 10 10 11 12 12 12 12 12 12 13 13 12 12 12 13
3 3 3 3 3 3 3 3 2 2 2 1 1 2 3 3 3 3 2 3 3 2 3 4 3 3 2 2 4 7 9 11 13 13 13 12 12 13 13 13 13 13 13
3 3 3 3 3 3 3 3 2 2 2 2 2 2 2 3 3 3 3 2 2 2 2 2 2 2 2 1 1 3 6 8 11 13 13 13 13 13 13 14 14 13 12
3 3 3 3 3 2 3 3 3 2 2 2 2 2 3 2 2 3 2 2 2 2 2 2 1 0 0 0 0 2 4 6 9 11 13 13 13 13 13 13 13 12 11
3 3 3 3 3 2 3 3 3 2 2 2 2 1 2 2 2 2 3 3 3 2 2 1 1 0 1 0 1 3 5 6 8 10 12 12 12 13 13 12 12 12 11
2 2 3 3 3 2 3 3 3 2 2 2 2 1 1 1 2 2 3 3 3 2 2 1 1 1 0 0 2 4 5 6 8 10 11 11 11 11 11 11 11 11 11
2 3 3 3 3 2 3 3 2 2 2 2 2 2 1 2 2 2 3 3 3 2 2 1 1 0 0 1 1 4 5 6 7 10 11 10 9 9 9 10 10 10 10
2 3 3 3 3 3 3 2 2 2 2 2 2 2 1 2 2 2 2 2 3 3 2 2 1 1 1 1 2 4 4 6 7 8 10 10 9 9 9 10 11 11 11
2 3 3 3 3 2 2 2 1 1 1 1 2 2 1 1 1 1 1 1 2 4 3 2 1 1 1 1 3 2 3 6 8 8 9 9 9 9 9 10 10 10 10
2 3 3 3 3 2 2 1 1 1 1 1 1 1 2 2 1 1 1 1 2 3 4 2 1 2 2 3 4 3 3 7 7 9 9 9 10 10 10 10 10 11 11
3 3 3 3 3 2 2 1 2 2 1 2 2 2 2 2 1 1 1 1 2 2 4 3 2 2 3 3 4 3 3 3 4 8 10 10 10 10 10 10 10 10 11
3 3 3 3 2 2 1 1 2 2 2 2 2 2 2 2 2 1 1 2 2 2 2 4 3 2 3 3 3 4 4 4 4 8 9 10 10 10 11 11 10 9 10
2 2 2 2 2 2 2 2 2 2 2 2 2 2 2 2 2 2 2 2 2 2 2 3 4 2 2 3 3 4 4 3 4 6 8 9 10 11 11 10 9 9 9
2 2 2 2 2 2 2 2 2 2 2 2 1 1 1 1 2 2 2 2 2 2 2 2 3 3 2 2 2 3 4 3 4 5 6 7 9 10 11 10 9 9 10
3 3 2 2 2 2 2 1 2 2 2 2 1 1 1 0 1 1 2 2 2 2 2 2 3 3 3 2 3 3 4 5 5 3 4 4 5 4 5 7 8 9 10
3 3 3 2 2 2 3 2 2 2 2 2 2 2 1 1 1 2 2 3 3 2 2 2 3 3 4 3 3 3 4 4 4 2 4 6 4 4 4 3 8 10 9
3 3 3 3 3 3 3 3 3 2 2 2 2 2 1 1 1 1 2 3 3 3 3 3 3 4 4 4 4 4 4 5 5 4 4 5 3 4 4 6 11 10 10
3 4 4 4 3 4 4 4 3 2 2 2 2 1 1 1 1 1 1 1 1 2 2 2 2 3 3 3 3 4 5 5 5 4 3 4 4 4 5 5 9 10 11
4 4 3 4 4 4 5 4 3 2 2 2 2 1 1 1 2 2 1 1 1 1 2 2 3 4 5 7 5 3 3 4 5 4 2 2 3 5 5 4 5 8 10
4 4 4 4 4 4 5 5 4 2 2 2 1 1 2 2 2 2 1 1 2 2 2 2 2 4 4 5 7 3 2 3 3 3 2 2 3 4 5 3 3 4 5
Wind_Direction
299 286 261 245 247 249 243 232 238 241 242 247 240 240 236 232 230 214 196 197 200 208 217 224 230 233 236 237 238 239 238 239 245 246 249 253 254 255 257 261 269 269 271
298 298 289 272 266 261 257 251 251 252 248 249 252 251 252 248 234 223 208 202 206 209 217 225 232 236 239 240 239 238 237 238 242 244 246 250 254 256 256 259 265 265 267
304 297 285 284 276 278 279 277 277 276 265 261 262 262 258 259 257 244 228 204 206 213 217 227 234 236 238 241 242 240 237 236 238 240 245 249 253 255 257 259 260 261 264
325 309 293 283 287 282 283 282 276 281 278 274 273 273 267 264 266 262 253 233 212 211 217 223 229 233 238 241 244 244 243 239 238 239 243 248 250 252 255 257 258 259 261
335 325 306 305 304 292 282 287 290 286 281 278 273 270 268 264 260 263 258 247 230 221 213 216 219 226 233 238 243 246 249 247 242 239 242 246 249 251 253 255 259 260 260
340 333 310 305 304 296 289 283 280 283 273 275 286 281 268 259 253 246 248 246 235 232 230 222 213 223 225 232 242 249 254 254 251 246 245 246 249 251 252 255 257 259 260
338 328 316 310 302 283 278 284 281 283 278 294 297 294 277 260 253 244 238 237 241 239 235 232 219 210 215 227 239 250 256 259 260 256 252 251 251 252 253 256 258 258 260
328 323 324 316 312 300 293 285 287 288 279 265 259 291 292 291 278 263 247 236 245 250 247 243 233 221 207 202 225 241 258 263 265 265 261 258 256 256 257 259 260 261 263
327 328 320 313 312 311 299 289 280 266 273 266 236 226 257 265 310 282 270 269 276 274 266 263 250 235 212 202 224 244 261 266 269 270 269 267 264 261 260 261 262 262 263
332 324 312 307 307 306 302 294 288 269 263 268 270 250 254 263 277 300 299 286 284 277 274 283 301 330 45 120 310 329 300 280 275 276 277 276 273 270 268 266 264 264 267
325 328 321 311 305 305 310 309 306 298 274 261 260 274 276 281 262 251 281 294 295 291 295 280 278 313 23 7 316 336 327 302 291 288 285 285 282 279 274 274 273 270 271
312 327 323 317 313 310 302 298 297 302 292 279 271 263 257 257 266 254 260 279 278 281 294 282 271 261 239 352 325 341 330 314 306 302 294 290 292 290 288 281 281 278 275
320 325 325 311 306 304 305 304 300 299 297 282 269 263 263 268 275 267 265 276 279 278 283 298 280 265 359 29 336 333 319 320 314 305 299 300 307 308 304 299 291 290 289
303 312 315 308 306 309 310 309 309 302 304 296 295 286 265 274 285 279 269 277 284 283 272 274 321 345 357 354 334 330 316 322 317 315 307 308 311 309 308 303 299 296 295
297 311 308 308 311 315 312 315 308 294 304 302 294 299 293 289 286 297 294 271 257 274 277 274 297 325 317 305 319 309 306 318 318 315 312 312 308 304 301 298 298 300 299
297 299 299 299 303 306 309 312 298 283 283 285 277 279 279 279 288 291 289 290 270 259 269 275 274 298 309 320 327 314 301 315 313 311 309 306 303 301 300 296 295 296 295
288 286 290 290 293 296 302 307 303 306 283 272 271 262 270 281 284 293 289 281 276 265 266 286 294 306 312 318 317 313 308 303 301 309 309 307 307 305 302 300 298 297 296
279 281 287 289 292 298 296 287 287 286 276 270 272 269 269 279 289 297 292 287 285 281 268 284 292 303 302 302 308 310 313 315 306 310 310 310 310 308 306 304 302 301 302
280 289 289 288 291 295 295 285 278 278 274 271 277 276 274 277 283 287 290 288 286 292 275 272 281 287 292 303 311 308 309 305 311 311 316 316 314 312 309 309 309 308 305
253 263 271 276 281 289 293 292 285 285 287 290 292 283 281 273 275 284 287 292 296 294 289 279 283 295 297 308 317 311 311 310 309 313 317 315 314 314 312 312 312 311 308
244 244 252 263 269 273 278 288 283 280 280 289 296 299 296 322 338 313 306 310 305 294 293 293 292 299 303 320 314 307 306 311 303 310 315 310 308 298 301 305 305 307 310
237 236 243 250 254 259 270 272 280 277 267 260 269 277 269 254 298 321 321 318 307 287 283 283 288 293 302 309 309 308 308 314 304 316 319 307 307 303 302 295 302 305 307
231 232 234 238 245 243 241 252 261 270 265 257 253 259 278 283 296 284 308 319 326 324 303 275 276 283 292 300 305 303 306 303 288 295 308 296 301 298 303 306 306 302 305
225 229 229 224 230 236 232 241 255 248 255 259 250 237 239 281 286 271 272 307 323 328 322 312 277 289 298 300 291 292 294 299 290 293 298 288 297 296 304 300 304 308 309
225 226 225 219 223 236 227 235 243 231 238 251 244 233 225 215 269 279 276 282 305 316 335 334 333 327 326 328 325 320 314 311 303 302 307 288 297 307 296 285 295 310 314
223 223 228 221 218 227 227 229 229 213 225 235 230 224 235 229 242 270 253 238 274 290 308 320 335 338 336 337 342 336 310 303 306 300 324 328 309 325 311 286 295 307 310